This is the latest recevied weather packets stored in our database for station/object W3EJE-13. If no packets are shown the sender has not sent any weather packets the latest 10 day(s).
| Time | Temp. | Humidity | Pressure | Rain* | Wind** | Luminosity | Snow |
|---|---|---|---|---|---|---|---|
| 1776878678 | 17.78° C | 76% | 1017.9 hPa | 0 mm | - | 708 W/m² | - |
| 1776878373 | 18.33° C | 72% | 1017.7 hPa | 0 mm | - | 714 W/m² | - |
| 1776878070 | 18.33° C | 74% | 1017.8 hPa | 0 mm | - | 713 W/m² | - |
| 1776877766 | 17.78° C | 73% | 1017.7 hPa | 0 mm | - | 696 W/m² | - |
| 1776877462 | 18.33° C | 71% | 1018 hPa | 0 mm | - | 708 W/m² | - |
| 1776877161 | 18.33° C | 71% | 1018 hPa | 0 mm | - | 721 W/m² | - |
| 1776876857 | 17.78° C | 71% | 1018.1 hPa | 0 mm | - | 724 W/m² | - |
| 1776876554 | 17.78° C | 72% | 1017.7 hPa | 0 mm | - | 743 W/m² | - |
| 1776876252 | 17.78° C | 71% | 1018.1 hPa | 0 mm | - | 688 W/m² | - |
| 1776875948 | 17.78° C | 72% | 1017.9 hPa | 0 mm | - | 685 W/m² | - |
| 1776875645 | 17.22° C | 71% | 1018 hPa | 0 mm | - | 662 W/m² | - |
| 1776875342 | 17.22° C | 72% | 1017.9 hPa | 0 mm | - | 655 W/m² | - |
| 1776875037 | 17.22° C | 72% | 1017.9 hPa | 0 mm | - | 726 W/m² | - |
| 1776874735 | 16.67° C | 72% | 1017.9 hPa | 0 mm | - | 688 W/m² | - |
| 1776874431 | 16.67° C | 74% | 1018.2 hPa | 0 mm | - | 251 W/m² | - |
| 1776874130 | 16.67° C | 71% | 1018 hPa | 0 mm | - | 386 W/m² | - |
| 1776873826 | 17.22° C | 72% | 1018.3 hPa | 0 mm | - | 708 W/m² | - |
| 1776873523 | 16.67° C | 73% | 1018.3 hPa | 0 mm | - | 680 W/m² | - |
| 1776873218 | 16.67° C | 74% | 1018.2 hPa | 0 mm | - | 663 W/m² | - |
| 1776872915 | 16.67° C | 74% | 1018.4 hPa | 0 mm | - | 666 W/m² | - |
* Rain latest hour (hover to see other rain measurements)
** Current wind speed in m/s (hover to see current wind gust speed)